Temp
12 12 12 12 12 12 11 11 11 11 11 11 10 10 10 10 10 10 9 9 9 9 9 9 8 8 8 8 8 8 8 8 8 8 8 8 8 7 7 7 7 7 7 7 7 6 6 6 6 6 6 6 6 6 6 6 6 6 6 6 6 6 6 6 6 6 6 6 6
12 11 11 11 11 11 11 11 11 11 10 10 10 10 10 10 10 9 9 9 9 9 9 8 8 8 8 8 8 8 7 7 7 7 7 7 7 7 7 7 7 7 7 6 6 6 6 6 6 6 6 6 6 6 6 6 6 6 6 6 6 6 6 5 5 5 5 5 5
11 11 11 11 11 11 11 10 10 10 10 10 10 10 10 9 9 9 9 9 9 8 8 8 8 8 8 8 7 7 7 7 7 7 7 7 7 7 7 7 7 7 6 6 6 6 6 6 6 6 6 6 6 6 6 6 6 6 6 6 6 5 5 5 5 5 5 5 5
11 11 11 11 11 11 10 10 10 10 10 9 9 9 9 9 9 9 9 9 8 8 8 8 8 8 7 7 7 7 7 7 7 7 7 7 7 7 7 6 6 6 6 6 6 6 6 6 6 6 5 5 5 5 6 6 6 6 6 5 5 5 5 5 5 5 5 5 5
11 10 10 10 10 10 10 10 10 10 9 9 9 9 9 9 9 9 9 8 8 8 8 8 8 7 7 7 7 7 7 7 7 7 7 7 7 6 6 6 6 6 6 6 6 6 6 5 5 5 5 5 5 5 5 5 5 5 5 5 5 5 4 4 4 4 4 4 4
10 10 10 10 10 10 10 10 9 9 9 9 9 9 9 9 9 9 8 8 8 8 8 7 7 7 7 7 7 7 7 7 7 7 6 6 6 6 6 6 6 6 6 6 6 6 5 5 5 5 5 5 5 5 5 5 5 5 5 5 4 4 4 4 4 4 4 4 4
10 10 10 10 10 10 9 9 9 9 9 9 9 9 9 8 8 8 8 8 8 8 7 7 7 7 7 7 7 7 7 7 7 6 6 6 6 6 6 6 6 6 6 6 5 5 5 5 5 5 5 5 5 5 5 5 5 4 4 4 4 4 4 4 4 4 4 4 4
10 10 10 10 10 9 9 9 9 9 9 9 8 8 8 8 8 8 8 8 7 7 7 7 7 7 7 7 7 7 7 6 6 6 6 6 6 6 6 6 6 6 6 5 5 5 5 5 5 5 5 5 4 4 4 4 4 4 4 4 4 4 4 4 4 4 4 4 4
10 10 10 10 10 9 9 9 9 9 8 8 8 8 8 8 8 8 8 7 7 7 7 7 7 7 7 7 7 6 6 6 6 6 6 6 6 6 6 6 6 5 5 5 5 5 5 5 5 4 4 4 4 4 4 4 4 4 4 4 4 4 4 4 4 3 3 3 3
9 9 9 9 9 9 9 9 8 8 8 8 8 8 7 7 7 7 7 7 7 7 7 7 7 7 7 6 6 6 6 6 6 6 6 6 6 5 5 5 5 5 5 5 5 5 5 5 4 4 4 4 4 4 4 4 4 4 4 4 4 3 3 3 3 3 3 3 3
9 9 9 9 9 8 8 8 8 8 8 8 8 7 7 7 7 7 7 7 7 7 7 7 7 7 6 6 6 6 6 6 6 6 5 5 5 5 5 5 5 5 5 5 5 5 5 4 4 4 4 4 4 4 4 4 4 4 4 3 3 3 3 3 3 3 3 3 3
9 9 9 9 8 8 8 8 8 8 8 7 8 7 7 7 7 7 7 7 7 7 6 6 6 6 6 6 6 6 6 5 5 5 5 5 5 5 5 5 5 5 5 5 5 5 4 4 4 4 4 4 4 4 4 4 4 3 3 3 3 3 3 3 3 3 3 3 3
9 9 9 8 8 8 8 8 8 7 7 7 7 7 7 7 7 7 7 7 6 6 6 6 6 6 6 6 6 6 5 5 5 5 5 5 5 5 5 5 5 5 5 5 4 4 4 4 4 4 4 4 4 4 4 3 3 3 3 3 3 3 3 3 3 3 3 3 3
8 8 8 8 8 8 8 7 7 7 7 7 7 7 7 6 6 6 6 6 6 6 6 6 6 6 6 6 5 5 5 5 5 5 5 5 5 5 5 5 5 5 4 4 4 4 4 4 4 4 4 4 4 3 3 3 3 3 3 3 3 2 2 2 2 2 2 3 3
8 8 8 8 8 8 7 7 7 7 7 7 7 7 6 6 6 6 6 6 6 6 6 6 6 6 5 5 5 5 5 5 5 5 5 5 5 5 5 5 4 4 4 4 4 4 4 4 4 4 4 3 3 3 3 3 3 3 3 2 2 2 2 2 2 2 2 2 2
8 8 8 8 8 7 7 7 7 7 7 6 6 6 6 6 6 6 6 6 6 6 6 5 5 5 5 5 5 5 5 5 5 5 5 5 5 4 4 4 4 4 4 4 4 4 4 4 4 3 3 3 3 3 3 3 3 3 2 2 2 2 2 2 2 2 2 2 2
7 7 7 7 7 7 7 7 7 7 7 6 6 6 6 6 6 6 6 6 5 5 5 5 5 5 5 5 5 5 5 5 5 5 4 4 4 4 4 4 4 4 4 4 4 4 4 4 3 3 3 3 3 3 3 3 2 2 2 2 2 2 1 2 2 2 2 2 2
7 7 7 7 7 7 7 7 7 7 6 6 6 6 6 6 6 5 5 5 5 5 5 5 5 5 5 5 5 5 5 4 4 4 4 4 4 4 4 4 4 4 4 4 4 4 3 3 3 3 3 3 3 3 3 2 2 2 2 1 1 1 1 1 1 1 1 1 1
7 7 7 7 7 7 7 7 7 6 6 6 5 5 5 5 5 5 5 5 5 5 5 5 5 5 5 5 4 4 4 4 4 4 4 4 4 4 4 4 4 4 4 4 4 3 3 3 3 3 3 3 3 3 2 2 2 2 1 1 1 1 1 1 1 1 1 1 1
7 7 7 7 7 7 7 6 6 6 6 5 5 5 5 5 5 5 5 5 5 5 5 5 5 5 4 4 4 4 4 4 4 4 4 4 4 4 4 4 4 4 4 4 3 3 3 3 3 3 3 3 3 2 2 2 1 1 1 1 1 1 1 0 0 0 0 0 0
7 7 7 7 7 7 6 6 6 6 5 5 5 5 5 5 5 5 5 5 5 5 5 4 4 4 4 4 4 4 4 4 4 4 4 4 4 4 4 4 4 4 4 3 3 3 3 3 3 3 3 2 2 2 2 2 1 1 1 1 1 0 0 0 0 0 0 0 0
7 6 6 6 6 6 6 6 6 5 5 5 5 5 5 5 5 5 5 5 5 4 4 4 4 4 4 4 4 4 4 4 4 4 4 4 4 4 4 4 4 4 3 3 3 3 3 3 3 3 2 2 2 2 2 1 1 1 1 1 0 0 -0 -0 -0 -0 -0 -0 -0
6 6 6 6 6 6 6 5 5 5 5 5 5 5 5 5 5 5 5 4 4 4 4 4 4 4 4 4 4 4 4 4 4 4 4 4 4 4 4 4 3 3 3 3 3 3 3 3 3 3 2 2 2 2 2 1 1 1 1 0 0 -0 -0 -0 -0 -0 -0 -0 -0
6 6 6 6 6 6 5 5 5 5 5 5 5 5 4 4 4 4 4 4 4 4 4 4 4 4 4 4 4 4 4 4 4 4 4 4 4 4 3 3 3 3 3 3 3 3 3 3 3 3 2 2 2 2 2 1 1 1 0 0 -0 -0 -1 -1 -1 -1 -1 -0 -0
6 6 6 6 6 5 5 5 5 5 5 5 5 4 4 4 4 4 4 4 4 4 4 4 4 4 4 4 4 4 4 4 4 4 4 4 3 3 3 3 3 3 3 3 3 3 3 3 3 3 2 2 2 2 2 1 1 1 0 -0 -0 -1 -1 -1 -1 -1 -1 -0 -0
6 6 6 5 5 5 5 5 5 5 5 5 4 4 4 4 4 4 4 4 4 4 4 4 4 4 4 4 4 4 4 4 4 4 3 3 3 3 3 3 3 3 3 3 3 3 3 3 3 3 2 2 2 2 1 1 1 0 -0 -0 -1 -1 -1 -1 -1 -1 -1 -0 -0
6 6 5 5 5 5 5 5 5 5 5 5 4 4 4 4 4 4 4 4 4 4 4 4 4 4 4 4 3 3 3 3 3 3 3 3 3 3 3 3 3 3 3 3 2 2 2 2 2 2 2 2 2 2 1 1 0 0 -0 -1 -1 -1 -1 -1 -1 -1 -1 -1 -0
5 5 5 5 5 5 5 5 5 5 5 4 4 4 4 4 4 4 4 4 4 4 4 4 4 3 3 3 3 3 3 3 3 3 3 3 3 3 3 3 3 3 3 2 2 2 2 2 2 2 2 2 2 2 1 1 0 -0 -0 -1 -1 -1 -1 -1 -1 -1 -1 -1 -1
5 5 5 5 5 5 5 5 5 5 4 4 4 4 4 4 4 4 4 3 3 3 3 3 3 3 3 3 3 3 3 3 3 3 3 3 3 3 3 3 3 3 2 2 2 2 2 2 2 2 2 2 2 1 1 1 0 -0 -1 -1 -1 -1 -1 -1 -1 -1 -1 -1 -1
5 5 5 5 5 5 5 5 5 4 4 4 4 4 4 4 3 3 3 3 3 3 3 3 3 3 3 3 3 3 3 3 3 3 3 3 3 3 3 3 2 2 2 2 2 2 2 2 2 2 2 2 1 1 1 0 -0 -0 -1 -1 -1 -1 -1 -1 -1 -1 -1 -1 -1
5 5 5 5 5 5 5 4 4 4 4 4 4 4 3 3 3 3 3 3 3 3 3 3 3 3 3 3 3 3 3 3 3 3 3 3 3 3 2 2 2 2 2 2 2 2 2 2 2 2 2 2 1 1 1 0 -0 -0 -1 -1 -1 -1 -1 -1 -1 -1 -1 -2 -2
5 5 4 4 4 4 4 4 4 4 4 4 3 3 3 3 3 3 3 3 3 3 3 3 3 3 3 3 3 3 3 3 3 3 3 2 2 2 2 2 2 2 2 2 2 2 2 2 2 2 1 1 1 1 0 0 -0 -1 -1 -1 -1 -1 -1 -1 -1 -1 -2 -2 -2
5 4 4 4 4 4 4 4 4 4 3 3 3 3 3 3 3 3 3 3 3 3 3 3 3 3 3 2 2 2 2 2 2 2 2 2 2 2 2 2 2 2 2 2 2 2 2 2 1 1 1 1 1 1 0 -0 -0 -1 -1 -1 -1 -1 -1 -1 -2 -2 -2 -2 -2
4 4 4 4 4 4 4 4 3 3 3 3 3 3 3 3 3 3 3 3 2 2 2 2 2 2 2 2 2 2 2 2 2 2 2 2 2 2 2 2 1 1 1 1 1 1 1 1 1 1 1 1 1 0 0 -0 -0 -1 -1 -1 -1 -1 -1 -2 -2 -2 -2 -2 -2
4 4 4 4 4 4 3 3 3 3 3 3 3 3 3 3 3 2 2 2 2 2 2 2 2 2 2 2 2 2 2 2 2 2 2 2 2 2 2 1 1 1 1 1 1 1 1 1 1 1 1 1 1 0 0 -0 -0 -1 -1 -1 -1 -1 -2 -2 -2 -2 -2 -2 -2
4 4 4 4 3 3 3 3 3 3 3 3 3 2 2 2 2 2 2 2 2 2 2 2 2 2 2 2 2 2 2 2 2 2 2 2 2 1 1 1 1 1 1 1 1 1 1 1 1 1 1 1 1 0 0 -0 -0 -1 -1 -1 -1 -1 -2 -2 -2 -2 -2 -2 -2
4 4 3 3 3 3 3 3 3 2 2 2 2 2 2 2 2 2 2 2 2 2 2 2 2 2 2 2 2 2 2 2 2 2 1 1 1 1 1 1 1 1 1 1 1 1 1 1 1 1 1 1 1 0 0 -0 -0 -1 -1 -1 -1 -2 -2 -2 -2 -2 -2 -2 -1
4 3 3 3 3 3 2 2 2 2 2 2 2 2 2 2 2 2 2 2 2 2 2 2 2 2 2 2 2 2 2 2 1 1 1 1 1 1 1 1 1 1 1 1 1 1 1 1 1 1 1 1 0 0 -0 -0 -1 -1 -1 -1 -2 -2 -2 -2 -2 -2 -2 -2 -2
3 3 3 3 2 2 2 2 2 2 2 2 2 2 2 2 2 2 2 2 2 2 2 2 2 2 2 2 1 1 1 1 1 1 1 1 1 1 1 1 1 1 1 1 1 1 1 1 1 1 1 1 0 0 -0 -1 -1 -1 -1 -2 -2 -2 -2 -2 -2 -2 -2 -2 -2
3 3 3 2 2 2 2 2 2 2 2 2 2 2 2 2 2 2 2 2 1 1 1 1 1 1 1 1 1 1 1 1 1 1 1 1 1 1 1 1 1 1 1 1 1 1 1 1 1 1 1 1 0 -0 -0 -1 -1 -1 -2 -2 -2 -2 -2 -2 -2 -2 -2 -2 -2
3 3 2 2 2 2 2 2 2 2 2 2 2 2 2 2 2 1 1 1 1 1 1 1 1 1 1 1 1 1 1 1 1 1 1 1 1 1 1 1 1 1 1 1 1 1 1 1 1 1 1 0 0 -0 -1 -1 -1 -1 -2 -2 -2 -2 -2 -2 -2 -2 -2 -2 -2
Height
780 780 781 781 782 782 783 783 783 784 784 784 785 785 785 785 785 786 786 786 786 786 785 785 785 785 785 785 784 784 784 784 783 783 783 783 783 782 782 781 781 780 780 779 778 778 777 777 776 775 774 774 773 772 772 771 770 769 768 768 767 766 765 764 763 762 760 759 758
781 781 782 782 782 783 783 783 784 784 784 785 785 785 785 786 786 786 786 786 786 785 785 785 785 784 784 784 784 784 784 784 783 783 783 783 782 782 781 781 780 780 779 779 778 778 777 776 775 775 774 773 772 772 771 770 770 769 768 767 766 765 764 763 762 761 759 758 757
781 782 782 783 783 783 784 784 784 785 785 785 785 785 786 786 786 786 786 786 786 785 785 785 784 784 784 784 784 784 784 783 783 783 783 782 782 782 781 781 780 779 779 778 778 777 777 776 775 774 773 773 772 771 770 769 769 768 767 766 765 764 763 762 761 760 758 757 756
782 782 782 783 783 784 784 784 785 785 785 785 786 786 786 786 786 786 786 786 786 785 785 785 784 784 784 783 783 783 783 783 783 783 782 782 781 781 781 780 780 779 778 778 778 777 776 775 775 774 773 772 771 771 770 769 768 768 766 765 764 763 762 761 760 759 758 756 755
781 782 782 783 783 784 784 785 785 785 786 786 786 786 786 786 786 786 786 786 786 785 785 785 784 784 783 783 783 783 783 783 783 782 782 781 781 781 780 780 779 779 778 778 777 776 776 775 774 773 773 772 771 770 769 768 768 767 765 764 763 763 762 760 759 758 757 755 754
782 782 783 783 783 784 784 785 785 785 786 786 786 786 786 786 786 786 786 786 786 785 785 785 784 784 783 783 783 783 783 783 782 782 781 781 781 780 780 779 779 778 778 777 776 776 775 774 773 773 772 771 770 769 768 768 767 766 764 763 763 762 760 759 758 757 755 754 753
782 782 783 783 783 784 784 785 785 786 786 786 786 786 786 786 786 786 786 786 786 785 785 784 784 783 783 783 783 783 782 782 782 781 781 780 780 780 779 779 778 778 777 776 776 775 774 773 773 772 771 770 769 768 768 767 766 765 763 762 761 760 759 758 757 756 754 753 751
782 782 783 783 783 784 784 785 785 786 786 786 786 786 786 787 787 786 786 786 786 785 785 784 784 783 783 783 782 782 782 782 781 781 780 780 780 779 779 778 778 777 777 776 775 774 773 773 772 771 770 769 768 767 767 766 765 764 763 761 760 759 758 757 756 754 753 751 750
782 782 783 783 783 784 784 785 786 786 786 786 787 787 787 787 787 786 786 786 786 785 785 784 784 783 783 783 782 782 782 781 781 780 780 779 779 778 778 778 777 776 776 775 774 774 773 772 771 770 769 768 768 766 765 765 764 763 761 760 758 758 757 756 754 753 752 750 748
782 782 783 783 783 784 784 785 785 786 786 787 787 787 787 787 786 786 786 786 786 785 785 784 783 783 783 782 782 782 781 781 780 780 779 779 778 778 778 777 776 776 775 774 774 773 772 771 770 769 768 768 767 765 764 763 763 761 760 759 758 756 755 754 753 752 750 748 747
782 782 782 783 783 784 784 785 785 786 786 786 787 787 787 786 786 786 786 786 785 785 784 784 783 783 783 782 782 781 781 780 780 779 779 778 778 778 777 776 776 775 774 773 773 772 771 770 769 768 767 766 766 764 763 763 762 760 759 758 757 755 753 752 751 750 749 747 745
782 782 782 783 783 783 784 785 785 786 786 786 786 787 787 786 786 786 785 785 785 784 784 783 783 783 782 782 781 781 780 780 779 779 778 778 778 777 776 776 775 774 773 773 772 771 770 769 768 767 766 765 764 763 762 761 760 759 758 756 755 754 752 751 750 748 747 746 744
782 782 782 783 783 783 784 784 785 786 786 786 786 786 786 786 786 785 785 785 784 784 783 783 783 782 782 782 781 781 780 780 779 778 778 778 777 776 776 775 774 773 773 772 771 770 769 768 767 766 765 764 763 762 761 760 759 758 757 755 754 753 751 750 748 747 746 744 743
782 782 782 782 783 783 783 784 785 785 786 786 786 786 786 786 786 785 785 784 784 784 783 783 783 782 782 781 781 780 780 779 778 778 777 777 776 776 775 774 773 773 772 771 770 769 768 767 766 765 764 763 762 761 760 759 758 757 756 754 753 751 750 748 747 746 744 743 741
782 782 782 782 783 783 783 784 784 785 786 786 786 786 786 786 785 785 784 784 784 783 783 783 782 782 781 781 780 780 779 778 778 777 777 776 775 775 774 773 772 771 771 770 769 768 767 766 765 764 763 762 761 760 759 758 757 756 755 753 752 750 749 747 746 745 743 742 740
782 782 782 782 782 783 783 783 784 785 785 785 785 785 785 785 785 784 784 784 783 783 783 782 782 781 781 780 780 779 778 778 777 777 776 775 774 774 773 772 771 770 769 768 768 767 766 765 764 763 762 761 760 759 758 757 756 755 753 752 751 749 748 746 745 743 742 741 739
782 782 782 782 782 783 783 783 784 784 785 785 785 785 785 785 784 784 784 783 783 782 782 782 781 781 780 780 779 778 778 777 777 776 775 774 774 773 772 771 770 769 768 768 767 766 765 764 763 762 761 760 759 758 757 755 754 753 752 751 749 748 747 745 744 743 741 740 738
781 782 782 782 782 782 783 783 783 784 784 784 785 785 784 784 784 783 783 783 782 782 781 781 781 780 779 779 778 778 777 777 776 775 774 774 773 772 771 770 769 768 768 767 766 765 763 763 762 761 760 759 758 757 755 754 753 752 751 749 748 747 746 744 743 742 741 739 737
781 781 782 782 782 782 782 783 783 784 784 784 784 784 784 784 783 783 783 782 782 781 781 780 780 779 779 778 778 777 777 776 775 774 774 773 772 771 770 769 768 768 767 766 765 764 763 762 761 759 758 758 756 755 754 753 752 751 749 748 747 746 744 743 742 741 740 738 736
781 781 782 782 782 782 782 783 783 783 784 784 784 784 784 783 783 783 782 782 781 781 780 780 779 779 778 778 777 777 776 775 774 773 773 772 771 770 769 768 768 767 766 765 764 763 762 760 759 758 757 756 755 753 753 751 750 749 748 747 746 744 743 742 741 740 738 737 735
781 781 781 782 782 782 782 783 783 783 783 784 784 784 783 783 783 782 782 781 781 780 780 779 779 778 778 777 777 776 775 774 774 773 772 771 770 769 768 768 767 766 765 764 763 762 760 759 758 757 756 755 753 752 751 750 748 748 746 745 744 743 742 741 740 738 737 736 734
781 781 781 781 782 782 782 783 783 783 783 783 783 783 783 783 783 782 781 781 780 780 779 779 778 778 777 777 776 775 774 773 773 772 771 770 769 768 768 767 766 765 763 763 761 760 759 758 757 756 755 753 752 751 750 749 747 746 745 744 743 742 741 740 738 737 736 734 733
780 781 781 781 781 782 782 782 783 783 783 783 783 783 783 782 782 781 781 780 780 779 779 778 778 777 777 776 775 774 773 773 772 771 770 769 768 768 767 766 765 764 763 762 760 759 758 757 755 754 753 752 751 750 748 748 746 745 743 742 741 740 739 738 737 736 734 733 732
780 780 781 781 781 781 782 782 783 783 783 783 783 783 782 782 781 781 780 780 779 778 778 778 777 777 776 775 774 774 773 772 771 770 769 768 768 767 766 765 764 763 762 760 759 758 757 756 754 753 752 751 750 748 747 746 745 744 743 741 740 738 738 737 736 734 733 731 730
780 780 780 781 781 781 782 782 782 783 783 783 783 782 782 781 781 780 779 779 778 778 778 777 777 776 775 774 774 773 772 771 770 769 768 767 766 765 764 763 763 762 760 759 758 758 757 756 754 753 751 750 748 747 746 745 744 743 742 740 739 738 736 735 734 733 732 730 729
780 780 780 780 781 781 781 782 782 782 782 782 782 782 781 781 780 779 779 778 778 778 777 777 776 775 774 774 773 772 771 770 769 768 767 766 765 764 763 763 762 760 759 758 758 757 755 754 753 752 751 749 748 746 745 743 743 742 741 740 738 737 735 734 732 731 730 729 728
779 780 780 780 781 781 781 782 782 782 782 782 781 781 781 780 779 779 778 778 778 777 776 776 775 774 774 773 772 771 770 769 768 767 766 765 764 763 762 761 760 759 758 757 756 755 754 753 752 751 750 748 747 745 744 742 741 740 740 739 738 736 735 733 732 730 729 728 726
779 780 780 780 781 781 781 782 782 782 781 781 781 780 780 779 779 778 778 778 777 776 776 775 774 773 773 772 771 770 769 768 767 766 765 764 763 762 761 760 759 758 757 756 755 754 753 752 751 749 748 747 746 744 743 742 740 739 738 738 737 735 734 733 731 729 728 726 725
779 780 780 780 781 781 781 781 781 781 781 781 780 780 779 779 778 778 778 777 776 776 775 774 773 773 772 771 770 769 768 767 766 765 764 763 762 761 760 759 758 757 756 755 754 753 752 750 749 748 747 746 745 743 742 741 739 738 738 737 736 734 733 732 730 729 728 726 724
779 780 780 781 781 781 781 781 781 781 780 780 780 779 779 778 778 778 777 776 775 775 774 773 772 772 771 770 769 768 767 766 765 764 763 762 761 760 759 758 757 755 754 753 753 751 750 749 748 747 746 745 743 742 741 740 738 738 737 736 735 733 733 731 730 728 727 725 724
779 780 780 781 781 781 781 781 780 780 780 780 779 779 778 778 778 777 776 775 775 774 773 772 772 771 770 769 768 767 766 765 764 763 762 761 759 758 757 756 755 754 753 752 751 750 749 748 747 745 744 743 742 741 740 738 738 737 736 734 733 733 731 730 729 728 726 725 723
779 780 780 780 780 780 780 780 780 780 779 779 779 778 778 778 777 776 775 775 774 773 772 771 770 769 768 768 767 766 765 764 763 762 761 760 758 757 756 755 754 753 752 751 750 749 748 746 745 744 743 742 741 739 738 737 736 735 734 733 732 731 730 729 728 727 725 724 723
779 780 780 780 780 780 780 780 779 779 779 778 778 778 777 777 776 775 774 774 773 772 771 770 769 768 768 767 765 764 763 763 762 761 760 758 758 756 755 753 753 751 750 750 748 748 746 745 744 743 742 740 739 738 737 736 735 734 733 732 731 730 729 728 727 726 724 723 721
779 779 780 780 780 780 779 779 779 779 778 778 778 777 777 776 775 774 773 773 772 771 770 769 769 768 767 766 765 764 763 762 761 759 758 757 756 755 753 752 751 750 749 748 748 746 745 744 743 742 740 739 738 737 735 734 733 733 732 731 730 729 728 727 726 725 723 722 720
779 779 779 779 779 779 779 779 778 778 778 777 777 776 776 775 774 773 773 772 771 770 769 768 768 767 766 765 764 763 762 760 759 758 757 756 754 753 752 751 750 749 748 747 746 745 744 743 741 740 739 738 736 735 734 733 732 731 730 729 728 727 727 726 724 723 722 720 718
778 779 779 779 779 779 778 778 778 777 777 776 776 775 775 774 773 773 772 771 770 769 768 767 767 766 765 764 763 762 761 759 758 757 756 755 753 752 750 749 748 748 747 746 745 744 743 741 740 739 738 736 735 734 733 732 731 729 728 728 727 726 725 724 723 722 720 719 717
778 778 778 778 778 778 778 777 777 777 776 775 775 774 773 773 772 771 771 770 769 768 767 766 765 765 764 763 762 761 760 758 757 756 754 753 753 751 749 748 747 746 745 744 743 743 741 740 739 738 736 735 734 733 732 730 729 728 728 727 726 725 724 723 721 720 718 717 715
778 778 778 778 778 777 777 777 776 776 775 774 774 773 773 772 771 770 770 769 768 767 766 765 764 764 763 762 761 759 758 758 756 755 753 752 751 750 748 747 745 745 744 743 742 741 740 739 738 737 735 734 733 732 730 729 728 728 727 725 724 723 723 721 720 718 717 715 713
777 777 777 777 777 777 776 776 775 775 774 773 773 772 772 771 770 770 769 768 768 767 766 765 764 763 762 761 759 758 757 756 755 754 753 751 750 749 748 746 744 743 743 742 741 740 739 738 737 735 734 733 732 731 730 728 728 727 726 725 723 722 721 720 718 717 714 713 711
777 777 777 776 776 776 775 775 774 774 773 773 772 772 771 770 770 769 768 768 767 766 765 764 763 762 761 760 758 757 756 754 754 753 752 750 749 748 747 745 744 743 742 741 740 739 738 737 736 734 733 732 731 730 729 728 727 726 725 724 723 721 719 718 717 715 713 710 709
776 776 776 775 775 775 774 774 773 773 773 772 771 771 770 770 769 768 768 767 766 765 764 763 762 761 760 759 758 756 754 753 752 751 751 749 748 747 746 744 743 741 740 740 739 738 737 736 734 733 733 732 731 729 728 727 726 725 724 723 722 720 718 716 714 713 711 709 708
Wind_Speed
13 12 12 12 12 12 11 10 9 8 8 7 7 6 6 5 5 4 4 4 3 3 3 2 3 4 5 6 7 7 8 8 8 8 8 8 8 9 10 10 11 12 12 13 14 14 15 16 17 18 18 19 18 18 18 18 18 19 19 19 20 21 21 22 23 23 24 24 24
12 12 11 11 11 10 10 9 8 8 7 7 6 6 6 5 5 4 3 3 3 2 2 2 4 5 6 6 7 7 8 8 8 8 8 8 8 9 10 10 11 12 13 13 14 15 16 16 17 18 19 19 19 19 19 18 18 19 19 20 20 21 22 22 23 23 23 24 23
12 11 10 10 9 9 8 8 7 7 6 6 6 5 5 5 4 4 3 3 2 2 2 4 5 7 7 7 7 7 7 8 8 8 8 8 9 9 10 11 11 12 13 14 14 15 16 16 17 18 19 19 19 19 19 19 19 19 20 21 21 22 22 22 23 23 23 23 23
12 11 10 10 9 9 8 7 6 6 6 6 5 5 5 5 4 4 3 2 2 2 4 5 6 7 7 7 7 7 7 8 8 8 9 9 9 9 10 11 12 13 14 14 15 15 16 16 17 18 18 19 19 19 19 19 20 20 20 21 22 22 23 23 23 23 23 23 24
11 11 11 10 9 9 8 7 6 6 6 5 5 4 5 5 4 3 3 2 2 3 5 6 6 6 7 7 7 7 8 8 9 9 9 9 10 10 11 11 12 13 14 15 15 16 16 17 18 18 19 19 19 19 19 19 20 21 21 22 22 23 23 23 24 24 24 24 25
11 11 10 10 9 9 8 7 6 6 6 5 4 4 4 4 4 3 2 2 2 4 5 6 7 7 7 7 8 8 9 9 9 9 10 10 10 11 11 12 13 14 15 15 16 16 17 17 18 19 19 19 19 19 19 20 20 22 23 23 23 23 23 24 24 25 25 26 27
10 10 10 10 9 9 8 7 6 6 5 5 4 4 3 4 4 3 2 2 3 4 5 6 7 8 8 8 8 9 10 10 10 10 10 11 11 11 12 12 13 14 15 16 16 17 17 18 19 19 20 20 20 20 20 20 21 23 24 24 24 24 24 25 25 26 26 27 28
10 10 10 9 9 9 8 7 6 5 4 4 4 3 3 3 3 3 2 2 3 4 5 7 8 9 9 9 9 9 10 11 11 11 11 11 12 12 12 13 14 15 16 16 17 18 18 19 19 20 20 20 20 21 21 22 23 23 24 25 25 25 25 25 26 27 27 29 29
10 10 10 9 9 9 8 7 6 5 5 4 4 4 3 3 3 3 3 4 4 4 5 7 8 9 9 9 9 10 10 11 12 12 12 12 12 12 13 13 14 15 16 17 18 18 19 19 20 20 20 21 21 22 23 23 23 24 24 25 25 26 26 27 27 28 28 29 29
10 9 9 9 9 8 7 6 6 5 4 4 3 3 4 3 3 4 5 5 4 4 5 7 9 9 9 9 10 10 11 11 12 12 12 12 12 13 13 14 15 16 17 18 18 19 20 20 21 21 21 21 22 23 23 23 24 24 25 25 26 27 28 28 28 29 29 28 29
9 8 8 8 8 7 6 5 4 4 3 3 3 3 3 3 4 4 5 4 3 4 6 8 9 9 9 10 10 10 11 11 12 12 12 13 13 13 13 14 15 16 17 18 19 20 20 21 21 22 22 22 23 23 23 23 24 24 25 26 27 28 29 29 29 28 28 28 29
8 8 8 8 8 7 5 4 3 3 3 2 2 2 2 3 4 5 4 3 4 5 6 8 9 9 9 10 10 10 11 11 12 12 13 13 13 13 14 15 16 17 18 19 20 20 21 21 22 22 23 23 23 23 23 24 24 25 26 27 27 28 28 29 29 28 28 29 29
8 8 8 8 7 7 5 4 4 3 3 3 3 2 2 3 4 5 5 5 5 6 6 7 8 9 9 10 10 10 11 11 12 12 13 13 13 14 15 15 16 18 19 19 20 20 21 21 22 23 23 24 24 24 23 24 24 25 26 27 28 28 29 29 29 29 29 29 29
7 7 7 7 7 6 5 4 4 3 3 3 3 3 3 3 4 5 6 7 7 7 7 7 8 9 9 10 10 10 11 11 12 13 13 14 14 15 15 16 17 18 19 20 21 21 21 22 22 23 24 24 24 24 24 23 24 25 26 27 28 29 29 29 29 29 29 29 30
7 7 6 6 6 5 5 4 3 3 2 2 3 3 3 2 4 6 7 8 7 7 7 8 9 9 10 10 10 11 11 12 13 13 14 15 15 16 16 17 18 19 20 21 21 21 22 22 23 23 24 24 24 24 24 24 24 25 26 27 28 29 29 29 29 29 29 29 30
6 6 6 5 5 5 4 4 3 2 0 2 3 4 3 3 5 6 7 8 8 8 8 9 10 10 11 11 11 11 12 13 13 14 15 15 16 17 17 18 19 20 21 21 22 22 22 23 23 24 24 24 24 24 24 24 25 26 27 28 28 28 28 29 29 29 29 29 30
5 5 5 4 4 4 3 3 2 1 1 2 4 4 5 5 6 7 7 8 8 9 10 10 11 11 11 11 12 12 12 13 14 15 15 16 17 17 18 19 20 20 21 22 22 23 23 24 24 24 24 24 24 24 24 25 25 27 27 28 28 28 28 29 29 29 29 30 30
5 4 3 3 3 3 2 2 1 1 2 3 4 5 6 7 7 8 8 8 9 10 11 11 12 12 12 12 12 12 13 14 15 15 16 17 17 18 19 20 20 21 21 22 23 23 24 25 25 24 24 24 24 24 24 25 26 27 28 28 28 28 28 28 28 28 29 29 30
4 3 2 2 2 2 2 2 2 2 3 4 5 6 7 7 8 8 8 9 9 10 11 12 12 12 12 12 13 13 14 15 15 16 17 17 18 19 19 20 21 21 22 22 23 24 24 25 25 25 24 24 24 25 25 26 27 27 27 27 27 28 28 28 28 29 29 29 30
3 2 2 2 2 2 2 2 2 3 3 4 5 6 7 7 8 8 9 9 10 11 11 12 12 12 13 13 14 15 15 16 16 17 17 18 19 19 20 21 21 22 22 23 24 24 25 25 25 25 25 25 25 26 26 26 27 27 27 27 27 28 28 28 29 29 29 29 30
2 2 2 2 2 3 3 3 3 4 4 4 5 6 7 8 8 8 9 10 11 11 11 12 12 13 13 14 15 16 16 17 17 17 18 19 19 20 20 21 22 22 23 24 24 24 25 25 25 25 25 25 25 26 26 26 27 27 27 27 28 28 28 29 29 29 29 29 30
2 2 3 3 3 3 4 4 4 4 5 5 6 6 7 8 8 9 10 10 11 11 11 12 12 13 14 15 16 17 17 17 18 18 19 19 20 20 21 21 22 23 23 24 24 25 25 25 25 25 25 25 25 25 26 26 26 27 27 28 28 29 29 29 29 29 29 29 29
3 3 3 4 4 4 4 4 5 5 5 6 6 7 8 8 9 9 10 10 11 11 11 12 13 14 15 16 16 17 18 18 19 19 19 20 20 21 21 22 22 23 23 24 24 25 25 25 25 25 25 25 25 26 26 26 26 27 27 28 29 29 29 29 29 29 29 29 29
3 4 4 4 5 5 4 4 5 5 6 6 7 8 8 9 9 10 10 10 11 11 11 12 13 14 15 16 16 17 18 19 19 20 20 21 21 21 22 22 22 23 23 24 24 24 24 24 25 25 26 26 26 26 26 26 26 26 27 28 29 29 29 29 29 28 28 29 28
4 4 4 5 4 4 4 4 5 5 6 7 7 8 9 9 10 10 11 11 11 11 12 13 14 15 16 16 17 17 18 19 20 21 21 22 22 22 22 23 23 23 24 24 24 23 23 24 25 26 26 27 27 27 26 26 26 26 27 27 28 29 29 29 29 28 28 28 28
4 5 5 4 4 3 3 4 5 6 6 7 8 8 9 10 10 11 11 11 11 12 13 14 15 15 16 17 17 18 19 19 20 21 22 23 23 23 23 23 23 24 24 24 24 24 24 25 25 26 26 27 27 27 27 26 26 26 26 27 27 27 28 29 29 29 28 27 27
5 5 4 3 3 3 3 4 5 6 6 7 8 9 10 10 10 11 11 11 12 13 13 14 15 16 17 17 18 19 20 20 21 21 22 23 23 24 24 24 24 24 24 24 24 25 25 26 26 26 26 26 27 27 26 26 26 26 26 26 26 26 27 27 28 28 28 27 27
4 4 3 3 3 3 4 4 5 6 6 7 8 9 10 10 10 11 11 12 12 13 14 15 16 17 18 18 19 20 21 21 22 22 23 23 23 24 24 25 25 25 25 25 25 25 26 26 26 26 26 26 26 26 26 26 26 26 25 25 25 26 26 26 27 27 27 27 28
4 3 3 3 3 4 4 5 5 6 7 8 9 9 10 10 10 11 11 12 13 14 15 16 17 18 18 19 20 21 21 22 22 23 23 23 24 24 25 25 25 26 26 26 25 26 26 26 26 26 26 26 26 26 26 25 25 25 25 25 25 25 26 26 26 26 27 27 28
3 3 3 3 4 4 4 5 5 6 7 8 9 9 10 10 11 11 12 13 14 15 16 17 18 18 19 20 21 21 22 22 22 23 23 24 24 25 25 26 26 27 27 26 26 25 25 26 26 26 26 26 26 26 26 25 25 25 24 24 25 25 25 26 26 27 27 28 29
2 2 3 3 4 4 5 5 6 6 7 8 8 9 10 10 11 12 13 14 15 16 17 17 18 19 20 20 21 21 22 23 23 23 23 24 25 25 26 26 27 27 27 26 25 25 25 26 26 26 27 27 27 26 26 25 24 24 24 24 25 25 25 26 26 27 28 29 29
2 2 3 3 4 4 5 5 6 7 7 8 8 9 10 10 11 12 13 15 16 17 17 18 19 20 20 21 21 22 22 23 23 23 24 24 25 26 27 27 27 27 26 25 25 25 26 26 26 27 27 27 27 26 25 25 24 24 24 24 24 25 25 25 26 27 28 29 29
1 2 3 4 4 5 5 6 6 7 7 8 9 9 10 11 12 13 14 15 16 17 17 18 19 20 21 21 22 22 23 23 23 24 24 25 25 26 27 27 27 26 26 25 25 26 26 27 27 27 27 27 26 26 25 24 24 23 23 23 24 24 25 25 26 27 28 28 28
2 2 3 4 4 5 5 6 6 7 8 8 9 9 10 12 13 14 15 16 16 17 18 18 19 20 20 21 22 22 23 23 24 24 25 26 26 27 27 27 27 26 26 26 26 26 27 27 27 27 27 26 26 25 24 24 23 23 23 23 23 24 24 25 26 27 27 27 27
2 2 3 4 4 5 5 6 7 7 8 8 9 10 11 12 14 15 16 16 17 17 18 19 19 20 20 21 21 22 23 24 24 25 26 26 27 27 27 28 28 28 27 26 26 26 27 27 27 27 26 26 25 24 24 23 23 23 23 23 23 23 24 25 26 26 26 26 27
2 2 3 4 4 5 6 6 7 7 8 9 10 11 12 14 15 15 16 17 17 18 19 19 20 20 21 21 22 22 23 24 25 26 26 26 27 27 28 28 28 28 28 27 26 26 26 26 26 26 26 25 24 24 23 22 22 22 22 23 23 24 25 25 26 26 26 26 26
2 2 3 4 5 5 6 6 7 8 8 10 11 12 13 14 15 16 17 17 18 18 19 20 20 21 21 22 22 23 23 24 25 26 26 26 27 27 28 29 29 29 28 27 26 26 26 26 26 26 25 25 24 23 22 22 21 21 22 22 23 24 25 25 25 25 25 26 27
2 3 4 4 5 5 6 6 7 8 9 11 12 13 14 15 16 17 17 17 18 18 19 20 21 21 22 22 23 24 24 24 25 26 26 27 27 27 28 29 29 29 28 27 27 26 26 26 25 25 24 24 23 22 21 21 21 21 22 23 24 25 25 25 25 25 26 27 27
3 3 4 4 5 5 6 7 8 9 10 11 13 14 15 15 16 17 17 17 17 18 19 20 21 22 22 23 23 24 25 25 25 26 26 27 27 27 28 28 28 28 28 28 27 26 26 25 24 24 23 23 22 21 20 20 21 21 22 23 25 26 25 25 25 26 27 28 26
3 3 4 4 5 6 7 8 8 9 11 12 13 14 15 16 16 17 17 17 18 18 19 20 21 22 23 23 24 25 25 26 26 26 26 27 27 27 27 27 28 28 28 27 27 26 25 24 24 23 22 22 21 20 20 20 21 22 23 24 25 25 25 25 26 27 28 27 24
3 3 4 4 5 6 7 8 9 10 11 12 13 14 15 16 16 17 18 18 18 19 20 21 21 22 23 23 24 25 26 26 26 27 26 27 27 27 27 27 28 28 28 27 26 25 24 24 23 22 21 21 20 20 20 21 22 23 24 24 25 25 25 26 28 27 26 23 21
Wind_Direction
108 107 106 106 106 105 105 106 107 108 108 104 101 99 98 95 90 86 81 78 76 68 53 23 5 8 15 16 13 9 3 359 357 357 358 357 353 350 348 346 345 344 342 341 339 337 336 335 333 332 331 330 327 324 320 317 314 311 310 310 310 310 310 309 308 307 307 306 304
98 96 94 93 93 92 92 94 97 101 103 104 103 104 103 100 94 85 77 71 70 68 42 3 4 12 20 22 17 9 0 355 353 354 355 355 351 348 345 343 342 341 340 339 338 336 334 333 331 330 328 327 325 321 317 315 312 311 310 310 310 310 310 309 307 307 306 305 304
95 93 92 91 91 90 88 88 90 92 93 93 95 98 101 101 96 88 76 65 57 35 6 2 10 17 22 21 15 6 357 352 351 352 352 351 348 346 343 341 339 339 338 338 337 335 333 331 329 327 326 324 322 318 315 313 312 311 310 310 310 310 309 308 307 306 305 304 304
100 100 99 99 99 98 96 95 94 91 87 82 79 80 83 86 85 80 72 62 41 6 360 6 14 19 19 15 8 360 354 352 351 352 350 348 346 344 341 339 337 336 336 336 335 333 331 329 327 325 323 321 319 316 314 312 311 310 309 309 309 309 308 307 306 305 305 303 303
105 104 103 102 102 102 102 100 99 95 89 81 74 71 71 71 68 64 59 49 19 354 355 6 14 16 14 9 2 356 353 353 353 352 350 347 345 342 340 337 335 334 334 334 333 332 330 327 325 323 321 319 316 314 312 311 310 309 308 308 308 307 306 306 305 304 304 303 302
111 110 109 108 107 106 104 101 98 96 93 87 83 81 79 77 69 59 48 30 351 340 349 2 9 11 9 5 0 356 354 354 354 353 349 346 344 342 339 336 334 333 332 332 331 329 328 326 323 321 320 317 314 312 311 310 308 308 307 307 307 306 306 305 305 304 303 302 301
115 114 113 112 111 107 102 95 91 91 94 92 86 81 80 81 72 60 39 359 334 338 347 356 2 6 7 3 359 355 353 354 354 352 350 347 344 341 337 333 331 330 330 329 329 327 326 324 322 320 318 316 313 311 310 309 308 307 307 307 307 306 306 305 305 304 303 302 301
113 111 109 109 109 106 101 94 87 82 82 80 72 64 62 66 64 50 17 349 350 350 347 348 355 360 2 0 356 353 352 352 352 352 350 347 343 339 335 331 329 327 327 327 326 325 323 321 320 318 316 314 312 310 309 309 308 308 307 307 306 306 306 305 305 304 303 302 301
107 104 103 103 102 102 100 96 88 79 71 66 56 45 39 43 40 20 4 6 10 0 343 338 346 353 357 356 353 351 350 350 349 348 348 345 341 336 332 328 326 325 325 325 324 322 321 319 318 316 314 312 311 309 309 309 309 308 307 307 307 306 306 305 305 304 303 302 300
107 104 101 99 96 93 91 91 89 84 77 70 60 44 30 20 8 4 9 17 13 350 329 331 341 349 353 353 351 349 348 347 346 345 344 341 337 333 329 326 324 323 322 322 321 320 319 317 316 314 313 311 310 309 309 309 309 308 307 307 307 306 306 305 305 304 304 302 301
113 110 106 102 97 91 87 83 85 84 77 70 66 53 32 4 351 357 9 14 356 328 322 330 341 347 349 348 347 346 344 343 342 341 339 336 333 330 326 324 321 320 319 319 319 318 317 316 314 312 311 311 310 309 309 309 309 308 307 307 307 307 306 306 306 305 304 303 302
112 109 107 104 101 97 90 81 73 66 54 36 40 45 33 357 341 345 353 352 333 322 326 335 342 344 344 344 343 342 341 339 337 335 334 332 330 326 323 321 319 318 317 317 317 316 315 314 312 311 310 310 310 309 309 309 308 308 308 308 308 307 306 306 306 306 305 304 304
105 104 102 102 101 99 94 83 69 55 39 15 6 17 23 356 336 332 332 333 331 333 335 338 340 339 339 339 339 338 336 334 332 331 329 328 326 323 321 318 317 316 316 315 315 314 313 312 311 310 310 309 309 308 308 308 308 308 308 309 308 308 307 306 306 306 306 305 305
101 99 99 100 100 100 96 88 75 60 39 4 345 354 6 354 329 322 324 331 337 340 339 336 335 334 335 335 336 334 332 330 329 327 326 325 323 321 318 316 316 315 315 314 314 313 312 311 310 310 309 308 308 308 308 308 308 308 309 309 308 308 307 306 307 307 307 306 306
100 97 97 100 102 103 102 98 91 76 41 345 327 334 346 336 318 316 321 330 337 339 337 333 331 332 333 334 334 332 330 328 327 325 324 322 320 318 316 315 315 314 314 314 313 312 311 310 310 309 308 307 307 307 307 308 308 308 308 308 308 307 306 306 307 307 307 307 307
98 95 96 99 104 109 112 113 112 103 30 317 316 322 323 312 308 313 321 329 333 335 334 332 331 331 333 334 333 330 327 325 324 323 321 319 317 316 315 314 314 314 314 313 312 311 310 310 309 308 308 307 306 307 307 307 308 308 308 308 307 306 306 307 307 308 308 308 307
97 92 92 97 104 109 115 120 126 132 298 309 315 319 318 315 315 320 326 330 332 332 331 331 331 332 332 332 330 328 324 322 321 319 318 316 315 314 313 313 313 313 313 312 311 310 310 309 308 308 307 306 305 305 306 307 307 308 308 308 307 306 307 307 308 308 308 308 307
100 94 92 94 98 101 101 97 78 359 328 323 323 322 322 323 325 328 330 331 330 329 329 330 331 331 330 328 326 323 320 318 317 316 315 314 313 313 312 312 312 312 311 311 310 309 309 308 308 307 306 305 304 304 305 306 307 307 307 307 307 307 308 308 308 308 308 308 307
108 98 89 87 88 87 77 58 27 1 344 334 328 324 323 324 326 328 328 327 327 327 327 328 329 329 327 324 321 319 317 316 315 314 314 314 313 312 312 311 311 311 310 309 309 308 308 307 307 306 305 304 304 304 304 305 306 307 307 307 308 308 309 309 309 308 308 307 307
117 96 71 64 72 72 61 40 18 360 345 335 326 320 319 320 322 323 323 323 324 325 326 326 325 324 322 320 318 317 316 316 316 315 315 314 313 312 311 311 310 309 308 308 308 307 307 307 306 305 304 304 303 304 304 305 306 307 308 308 308 309 310 310 309 309 308 307 306
108 65 50 56 61 60 47 29 13 357 344 332 322 316 314 315 317 319 319 321 322 323 324 323 321 319 318 317 317 317 317 318 317 316 315 314 313 312 311 310 309 308 307 307 307 307 307 306 305 305 304 304 304 304 305 306 307 308 308 309 310 310 310 310 310 309 308 307 306
68 51 54 62 59 51 37 22 7 353 339 327 316 312 311 313 314 315 317 319 320 321 320 318 317 316 316 316 317 318 318 318 317 315 314 313 312 310 309 308 307 307 307 307 307 307 306 306 305 305 305 305 305 305 306 307 308 309 310 310 311 311 311 311 310 309 308 308 307
60 61 64 61 53 42 28 12 357 343 330 319 311 309 309 311 313 314 316 318 319 318 316 315 314 314 315 317 318 318 318 317 315 315 314 312 310 309 308 307 306 306 306 307 307 307 307 307 306 306 306 306 307 307 308 309 310 311 311 312 312 312 312 311 311 310 309 308 308
71 71 66 57 46 33 17 358 341 329 319 313 310 309 310 311 313 315 317 318 318 317 315 314 314 315 316 317 318 317 316 315 314 313 312 311 309 308 308 307 306 306 306 306 306 307 307 307 307 308 308 308 308 309 309 310 311 312 313 313 314 313 313 312 311 311 310 309 309
79 73 63 51 39 22 2 341 325 317 312 310 309 310 311 312 314 316 318 319 319 318 316 315 315 316 317 318 317 316 315 314 313 312 311 310 309 308 307 307 306 306 306 306 307 306 307 307 307 308 309 309 310 310 311 311 312 313 314 314 314 314 313 312 312 312 311 311 311
79 69 59 45 28 7 344 326 316 311 309 309 308 308 309 311 314 316 318 319 319 318 316 316 317 317 318 317 317 315 314 313 312 311 309 308 308 307 307 307 307 307 307 307 307 307 307 307 308 308 309 310 311 311 312 313 314 314 315 315 315 314 313 313 313 312 312 313 313
74 64 52 35 13 350 331 319 312 309 307 306 306 307 308 311 314 316 317 317 317 317 316 317 317 317 317 316 315 314 313 313 311 310 309 308 307 307 307 307 307 307 307 307 307 307 308 308 309 309 310 311 312 312 313 314 315 315 316 315 315 314 313 312 312 313 313 314 315
68 55 38 17 356 338 325 316 311 308 306 305 305 307 309 312 313 314 314 315 315 316 317 317 317 317 316 315 314 313 312 312 311 310 308 307 307 306 306 307 307 307 307 307 308 308 309 309 310 311 311 312 313 314 314 315 315 315 315 315 314 313 313 312 313 314 314 315 316
60 41 19 359 343 331 323 316 311 307 305 305 306 308 310 311 312 312 313 314 315 316 316 317 317 317 316 314 313 313 312 311 310 309 308 307 307 306 307 307 307 307 308 308 308 309 309 310 311 312 312 313 314 314 314 314 314 314 314 314 313 313 313 313 313 314 315 316 316
49 24 1 346 335 329 322 316 311 307 305 306 307 309 309 310 311 312 312 313 315 316 317 318 317 316 314 313 313 312 311 310 310 309 308 308 307 307 307 307 308 308 309 309 310 310 310 311 312 313 313 314 314 314 314 313 313 313 313 312 312 312 312 313 314 315 315 315 315
39 7 348 337 331 325 319 314 309 307 306 306 307 308 309 310 310 312 313 314 316 318 319 318 316 314 313 312 312 311 310 310 309 309 309 308 308 308 308 308 309 309 310 310 311 311 312 312 313 313 314 314 314 314 313 312 312 312 311 311 311 311 312 313 314 314 314 314 313
27 354 338 332 326 321 316 311 308 306 305 306 307 308 309 310 310 312 314 316 318 319 318 317 315 314 313 312 311 310 310 309 309 309 309 309 309 309 309 309 309 310 311 311 312 312 313 313 313 314 314 314 314 313 312 312 311 310 310 309 309 311 312 313 313 313 313 312 311
11 346 333 328 322 317 311 308 306 305 305 306 308 309 309 310 311 314 317 319 320 319 317 316 314 313 311 311 310 309 309 309 309 309 309 309 309 309 310 310 310 311 312 312 313 313 313 314 314 314 314 314 313 312 312 311 311 309 309 309 309 310 311 312 312 312 311 310 309
358 340 331 323 316 312 308 305 304 304 307 309 310 310 310 312 314 317 320 321 321 319 316 314 312 311 310 309 308 308 308 308 309 309 310 310 310 310 310 310 310 311 312 313 313 313 314 314 314 314 314 314 313 312 312 312 311 310 309 309 310 311 311 312 311 310 309 308 307
345 334 325 315 309 305 303 303 305 307 309 311 312 312 314 315 318 320 321 322 321 318 316 314 312 310 309 309 308 308 308 309 310 310 311 311 312 311 311 311 311 312 313 313 313 313 314 314 314 314 314 314 313 313 313 312 311 311 311 311 311 312 312 312 311 310 308 307 305
336 322 311 304 300 300 302 304 308 311 312 312 314 315 318 319 321 322 323 323 320 317 314 313 312 310 309 309 309 309 310 310 311 311 312 313 313 312 312 311 312 313 313 314 314 314 314 314 314 314 315 314 314 314 313 313 312 312 312 313 313 314 314 313 311 310 308 307 305
311 301 297 295 297 299 303 308 311 313 313 314 316 318 320 322 323 324 325 323 319 315 314 313 312 310 310 310 310 310 311 312 312 312 312 313 313 313 312 312 312 313 314 314 314 315 315 315 315 315 315 315 315 314 314 314 314 314 314 315 315 315 314 313 311 310 308 307 305
284 285 288 293 297 302 307 312 314 314 315 317 320 322 323 324 324 324 324 322 317 314 312 311 311 310 310 311 311 311 312 313 313 313 313 313 314 313 313 312 312 313 314 315 315 315 316 315 315 315 316 315 315 316 316 316 316 316 316 317 316 315 314 313 311 310 308 306 303
274 280 288 296 303 308 313 316 317 317 319 321 323 325 325 325 324 323 322 320 316 313 311 310 310 310 311 312 312 312 313 313 314 314 314 314 314 314 313 313 313 314 315 316 316 316 316 316 316 316 316 316 316 318 319 319 318 318 318 317 316 315 314 313 312 310 308 304 301
273 282 292 301 309 315 318 319 321 323 324 325 325 326 326 324 322 321 319 317 314 312 310 310 310 311 312 313 313 313 313 314 315 315 315 315 315 315 315 314 314 315 317 317 318 317 317 316 316 316 317 317 318 321 322 322 320 319 318 317 316 315 313 313 312 309 306 302 302
277 288 299 310 317 321 323 323 325 328 329 328 327 326 324 322 320 318 316 315 313 312 311 310 311 312 313 314 314 314 314 315 315 316 316 316 317 317 317 317 317 317 318 318 318 318 317 317 317 317 318 319 321 323 324 324 322 319 318 316 315 314 313 312 311 307 303 302 307